W2CS Weather Reports


time (UTC)temp
C
wind
direction
speed
KPH
gust
KPH
rain 1hr
cm
rain 24hr
cm
rain mn
cm
humidity
%
barometer
mb
20260509124039 11 56 1.6 6.4 0.00 0.00 0.00 92 1015.3
20260509123539 11 181 0.0 6.4 0.00 0.00 0.00 92 1015.2
20260509123054 11 0 0.0 3.2 0.00 0.00 0.00 93 1015.4
20260509122538 11 0 0.0 3.2 0.00 0.00 0.00 94 1015.4
20260509122042 11 0 0.0 4.8 0.00 0.00 0.00 94 1015.3
20260509121557 11 0 0.0 4.8 0.00 0.00 0.00 94 1015.2
20260509121039 10 0 1.6 4.8 0.00 0.00 0.00 94 1015.2
20260509120539 10 39 0.0 3.2 0.00 0.00 0.00 94 1015.0
20260509120051 10 128 0.0 3.2 0.00 0.00 0.00 94 1015.0
20260509115538 10 0 0.0 4.8 0.00 0.00 0.00 94 1014.9
20260509115039 10 0 0.0 4.8 0.00 0.00 0.00 94 1015.0
20260509114600 10 157 0.0 4.8 0.00 0.00 0.00 94 1014.9
20260509114040 9 0 0.0 3.2 0.00 0.00 0.00 94 1014.8
20260509113540 9 0 0.0 1.6 0.00 0.00 0.00 94 1015.0
20260509113048 8 0 0.0 1.6 0.00 0.00 0.00 94 1015.0
20260509112539 8 0 0.0 0.0 0.00 0.00 0.00 94 1015.1
20260509112043 8 0 0.0 0.0 0.00 0.00 0.00 94 1015.1
20260509111551 8 0 0.0 0.0 0.00 0.00 0.00 94 1015.1
20260509111043 8 0 0.0 0.0 0.00 0.00 0.00 94 1015.0
20260509110538 8 0 0.0 0.0 0.00 0.00 0.00 94 1015.1
20260509110050 8 0 0.0 3.2 0.00 0.00 0.00 94 1015.1
20260509105539 8 0 0.0 3.2 0.00 0.00 0.00 94 1015.2
20260509105039 8 0 0.0 3.2 0.00 0.00 0.00 94 1015.3
20260509104550 8 0 1.6 3.2 0.00 0.00 0.00 94 1015.3
20260509104040 8 0 0.0 3.2 0.00 0.00 0.00 94 1015.3
20260509103539 8 107 1.6 3.2 0.00 0.00 0.00 94 1015.1
20260509103048 7 0 0.0 3.2 0.00 0.00 0.00 94 1015.2
20260509102538 7 0 0.0 0.0 0.00 0.00 0.00 94 1015.3
20260509102039 7 0 0.0 0.0 0.00 0.00 0.00 94 1015.3
20260509101548 7 0 0.0 0.0 0.00 0.00 0.00 94 1015.2
20260509101039 7 0 0.0 0.0 0.00 0.00 0.00 94 1015.2
20260509100539 7 0 0.0 0.0 0.00 0.00 0.00 94 1015.2
20260509100048 7 0 0.0 0.0 0.00 0.00 0.00 93 1015.2
20260509095537 7 0 0.0 0.0 0.00 0.00 0.00 93 1015.1
20260509095039 7 0 0.0 0.0 0.00 0.00 0.00 94 1015.0
20260509094552 7 0 0.0 0.0 0.00 0.00 0.00 94 1014.8
20260509094038 7 0 0.0 0.0 0.00 0.00 0.00 93 1014.6
20260509093540 7 0 0.0 3.2 0.00 0.00 0.00 93 1014.6
20260509093053 7 0 0.0 3.2 0.00 0.00 0.00 93 1014.5
20260509092539 7 0 0.0 0.0 0.00 0.00 0.00 93 1014.5
20260509092042 7 0 0.0 0.0 0.00 0.00 0.00 93 1014.6
20260509091558 7 0 0.0 1.6 0.00 0.00 0.00 93 1014.4
20260509091039 6 0 0.0 1.6 0.00 0.00 0.00 93 1014.4
20260509090540 6 0 0.0 1.6 0.00 0.00 0.00 93 1014.3
20260509090100 6 0 0.0 0.0 0.00 0.00 0.00 93 1014.4
20260509085542 6 0 0.0 0.0 0.00 0.00 0.00 93 1014.1
20260509085039 6 0 0.0 0.0 0.00 0.00 0.00 93 1014.1
20260509084556 6 0 0.0 0.0 0.00 0.00 0.00 93 1014.0
20260509084039 6 0 0.0 0.0 0.00 0.00 0.00 93 1013.8
20260509083540 6 0 0.0 0.0 0.00 0.00 0.00 93 1013.9
20260509083056 6 0 0.0 0.0 0.00 0.00 0.00 93 1013.9
20260509082538 6 0 0.0 0.0 0.00 0.00 0.00 93 1013.8
20260509082041 6 0 0.0 0.0 0.00 0.00 0.00 93 1013.8
20260509081553 6 0 0.0 0.0 0.00 0.00 0.00 93 1013.9
20260509081040 6 0 0.0 0.0 0.00 0.00 0.00 93 1014.0
20260509080537 6 0 0.0 0.0 0.00 0.00 0.00 93 1013.9
20260509080106 6 0 0.0 0.0 0.00 0.00 0.00 93 1013.8
20260509075539 6 0 0.0 0.0 0.00 0.00 0.00 93 1013.9
20260509075043 6 0 0.0 0.0 0.00 0.00 0.00 93 1014.1
20260509074550 7 0 0.0 0.0 0.00 0.00 0.00 93 1014.0
20260509074043 7 0 0.0 0.0 0.00 0.00 0.00 93 1014.1
20260509073539 7 0 0.0 0.0 0.00 0.00 0.00 93 1014.2
20260509073106 7 0 0.0 0.0 0.00 0.00 0.00 93 1014.2
20260509072539 7 0 0.0 0.0 0.00 0.00 0.00 93 1014.3
20260509072038 7 0 0.0 0.0 0.00 0.00 0.00 93 1014.4
20260509071553 7 0 0.0 0.0 0.00 0.00 0.00 93 1014.4
20260509071039 7 0 0.0 0.0 0.00 0.00 0.00 93 1014.3
20260509070539 7 0 0.0 0.0 0.00 0.00 0.00 93 1014.3
20260509070058 7 0 0.0 0.0 0.00 0.00 0.00 93 1014.3
20260509065538 7 0 0.0 0.0 0.00 0.00 0.00 93 1014.5
20260509065039 7 0 0.0 0.0 0.00 0.00 0.00 93 1014.5
20260509064556 7 0 0.0 0.0 0.00 0.00 0.00 93 1014.5
20260509064039 7 0 0.0 0.0 0.00 0.00 0.00 93 1014.6
20260509063539 6 0 0.0 1.6 0.00 0.00 0.00 93 1014.5
20260509063055 6 0 0.0 1.6 0.00 0.00 0.00 93 1014.6
20260509062539 6 0 0.0 0.0 0.00 0.00 0.00 93 1014.7
20260509062038 6 0 0.0 0.0 0.00 0.00 0.00 93 1014.9
20260509061548 6 0 0.0 0.0 0.00 0.00 0.00 93 1014.8
20260509061038 6 0 0.0 0.0 0.00 0.00 0.00 93 1014.6
20260509060539 6 0 0.0 0.0 0.00 0.00 0.00 93 1014.7
20260509060055 6 0 0.0 0.0 0.00 0.00 0.00 93 1014.8
20260509055539 6 0 0.0 0.0 0.00 0.00 0.00 93 1014.6
20260509055038 6 0 0.0 0.0 0.00 0.00 0.00 93 1014.6
20260509054554 6 0 0.0 0.0 0.00 0.00 0.00 93 1014.6
20260509054038 6 0 0.0 0.0 0.00 0.00 0.00 92 1014.6
20260509053539 6 0 0.0 0.0 0.00 0.00 0.00 92 1014.6
20260509053048 6 0 0.0 0.0 0.00 0.00 0.00 92 1014.5
20260509052538 6 0 0.0 0.0 0.00 0.00 0.00 93 1014.5
20260509052039 6 0 0.0 0.0 0.00 0.00 0.00 93 1014.5
20260509051551 6 0 0.0 0.0 0.00 0.00 0.00 93 1014.5
20260509051039 6 0 0.0 1.6 0.00 0.00 0.00 93 1014.4
20260509050539 5 0 0.0 3.2 0.00 0.00 0.00 93 1014.5
20260509050058 5 107 0.0 3.2 0.00 0.00 0.00 93 1014.5
20260509045539 5 107 1.6 3.2 0.00 0.00 0.00 92 1014.4
20260509045039 5 107 1.6 3.2 0.00 0.00 0.00 92 1014.5
20260509044550 5 108 0.0 3.2 0.00 0.00 0.00 92 1014.6
20260509044039 5 0 0.0 3.2 0.00 0.00 0.00 92 1014.6
20260509043538 5 0 0.0 3.2 0.00 0.00 0.00 92 1014.5
20260509043050 5 107 0.0 1.6 0.00 0.00 0.00 92 1014.5
20260509042538 5 107 0.0 3.2 0.00 0.00 0.00 91 1014.3
20260509042039 5 107 0.0 3.2 0.00 0.00 0.00 92 1014.3
20260509041552 5 107 1.6 3.2 0.00 0.00 0.00 92 1014.2
20260509041039 5 107 1.6 3.2 0.00 0.00 0.00 91 1014.1
20260509040541 5 107 0.0 3.2 0.00 0.00 0.00 91 1014.3
20260509040049 5 0 0.0 3.2 0.00 0.00 0.00 91 1014.3
20260509035539 5 107 1.6 3.2 0.00 0.00 0.00 91 1014.2
20260509035039 5 107 1.6 3.2 0.00 0.00 0.00 91 1014.1
20260509034554 5 107 0.0 3.2 0.00 0.00 0.00 91 1014.1
20260509034038 5 107 0.0 1.6 0.00 0.00 0.00 91 1014.1
20260509033539 5 0 0.0 0.0 0.00 0.00 0.00 91 1014.2
20260509033105 5 0 0.0 0.0 0.00 0.00 0.00 91 1014.1
20260509032540 5 0 0.0 1.6 0.00 0.00 0.00 91 1014.2
20260509032039 5 0 0.0 1.6 0.00 0.00 0.00 91 1014.2
20260509031552 5 0 0.0 3.2 0.00 0.00 0.00 91 1014.0
20260509031038 5 0 0.0 3.2 0.00 0.00 0.00 91 1014.2
20260509030539 5 107 0.0 3.2 0.00 0.00 0.00 90 1014.1
20260509030052 5 0 0.0 0.0 0.00 0.00 0.00 91 1014.2
20260509025542 5 0 0.0 0.0 0.00 0.00 0.00 90 1014.1
20260509025039 5 0 0.0 0.0 0.00 0.00 0.00 90 1014.0
20260509024557 5 0 0.0 0.0 0.00 0.00 0.00 90 1013.9
20260509024039 6 0 0.0 0.0 0.00 0.00 0.00 90 1013.9
20260509023539 6 0 0.0 0.0 0.00 0.00 0.00 90 1013.7
20260509023048 6 0 0.0 0.0 0.00 0.00 0.00 90 1013.7
20260509022539 6 0 0.0 0.0 0.00 0.00 0.00 90 1013.7
20260509022039 6 0 0.0 3.2 0.00 0.00 0.00 90 1013.6
20260509021551 6 0 0.0 3.2 0.00 0.00 0.00 90 1013.5
20260509021042 6 0 0.0 3.2 0.00 0.00 0.00 90 1013.6
20260509020538 6 0 0.0 0.0 0.00 0.00 0.00 90 1013.3
20260509020050 6 0 0.0 0.0 0.00 0.00 0.00 90 1013.3
20260509015539 6 0 0.0 0.0 0.00 0.00 0.00 90 1013.4
20260509015041 6 0 0.0 0.0 0.00 0.00 0.00 90 1013.3
20260509014549 6 0 0.0 0.0 0.00 0.00 0.00 90 1013.3
20260509014036 6 0 0.0 0.0 0.00 0.00 0.00 90 1013.2
20260509013538 6 0 0.0 0.0 0.00 0.00 0.00 90 1013.2
20260509013050 6 0 0.0 0.0 0.00 0.00 0.00 89 1013.1
20260509012538 6 0 0.0 0.0 0.00 0.00 0.00 89 1013.1
20260509012040 6 0 0.0 0.0 0.00 0.00 0.00 89 1013.0
20260509011604 7 0 0.0 3.2 0.00 0.00 0.00 89 1013.0
20260509011040 7 0 0.0 3.2 0.00 0.00 0.00 89 1012.9
20260509010539 7 107 0.0 3.2 0.00 0.00 0.00 88 1012.7
20260509010057 7 107 0.0 0.0 0.00 0.00 0.00 88 1012.7
20260509005539 7 0 0.0 0.0 0.00 0.00 0.00 88 1012.5
20260509005039 7 0 0.0 0.0 0.00 0.00 0.00 88 1012.4
20260509004558 7 0 0.0 1.6 0.00 0.00 0.00 88 1012.3
20260509004043 7 0 0.0 1.6 0.00 0.00 0.00 88 1012.1
20260509003539 8 0 0.0 1.6 0.00 0.00 0.00 88 1012.0
20260509003106 8 0 0.0 0.0 0.00 0.00 0.00 88 1012.0
20260509002542 8 0 0.0 0.0 0.00 0.00 0.00 88 1011.7
20260509002038 8 0 0.0 0.0 0.00 0.00 0.00 87 1011.6
20260509001552 8 0 0.0 0.0 0.00 0.00 0.00 87 1011.5
20260509001040 8 0 0.0 0.0 0.00 0.00 0.00 87 1011.5
20260509000539 8 0 0.0 0.0 0.00 0.00 0.00 86 1011.5
20260509000051 8 0 0.0 0.0 0.00 0.00 0.00 86 1011.4
20260508235539 8 0 0.0 0.0 0.00 0.00 0.00 86 1011.2
20260508235038 9 0 0.0 0.0 0.00 0.00 0.00 85 1011.2
20260508234546 9 0 0.0 0.0 0.00 0.00 0.00 85 1011.1
20260508234041 9 0 0.0 0.0 0.00 0.00 0.00 85 1011.0
20260508233539 10 0 0.0 0.0 0.00 0.00 0.00 85 1010.9
20260508233048 10 0 0.0 0.0 0.00 0.00 0.00 84 1010.8
20260508232538 10 0 0.0 0.0 0.00 0.00 0.00 84 1010.9
20260508232038 10 0 0.0 0.0 0.00 0.00 0.00 84 1010.8
20260508231555 10 0 0.0 0.0 0.00 0.00 0.00 83 1010.7
20260508231037 10 0 0.0 0.0 0.00 0.00 0.00 83 1010.7
20260508230539 10 0 0.0 0.0 0.00 0.00 0.00 83 1010.6
20260508230047 10 0 0.0 0.0 0.00 0.00 0.00 83 1010.7
20260508225538 11 0 0.0 0.0 0.00 0.00 0.00 83 1010.7
20260508225038 11 0 0.0 0.0 0.00 0.00 0.00 82 1010.6
20260508224607 11 0 0.0 0.0 0.00 0.00 0.00 82 1010.6
20260508224039 11 0 0.0 1.6 0.00 0.00 0.00 81 1010.5
20260508223539 11 0 0.0 1.6 0.00 0.00 0.00 81 1010.6
20260508223048 11 0 0.0 1.6 0.00 0.00 0.00 81 1010.4
20260508222538 11 0 0.0 1.6 0.00 0.00 0.00 80 1010.6
20260508222039 11 0 0.0 4.8 0.00 0.00 0.00 80 1010.4
20260508221607 11 0 0.0 4.8 0.00 0.00 0.00 79 1010.4
20260508221037 12 0 0.0 4.8 0.00 0.00 0.00 79 1010.4
20260508220541 12 0 0.0 3.2 0.00 0.00 0.00 81 1010.4
20260508220052 12 0 0.0 3.2 0.00 0.00 0.00 81 1010.5
20260508215538 12 0 0.0 3.2 0.00 0.00 0.00 81 1010.5
20260508215039 12 345 0.0 3.2 0.00 0.00 0.00 83 1010.5
20260508214550 12 0 0.0 3.2 0.00 0.00 0.00 82 1010.4
20260508214037 11 0 0.0 3.2 0.00 0.00 0.00 84 1010.6
20260508213539 11 0 0.0 1.6 0.00 0.00 0.00 84 1010.6
20260508213048 12 0 0.0 1.6 0.00 0.00 0.00 84 1010.6
20260508212537 11 0 0.0 3.2 0.00 0.00 0.00 84 1010.7
20260508212039 11 0 0.0 3.2 0.00 0.00 0.00 81 1010.7
20260508211553 11 0 0.0 3.2 0.00 0.00 0.00 81 1010.4
20260508211039 11 0 0.0 4.8 0.00 0.00 0.00 81 1010.3
20260508210539 11 35 0.0 4.8 0.00 0.00 0.00 82 1010.3
20260508210045 11 263 0.0 4.8 0.00 0.00 0.00 84 1010.2
20260508205539 11 262 0.0 3.2 0.00 0.00 0.00 86 1010.2
20260508205039 11 0 0.0 3.2 0.00 0.00 0.00 87 1010.1
20260508204552 11 318 0.0 4.8 0.00 0.00 0.00 87 1010.1
20260508204040 11 0 0.0 4.8 0.00 0.00 0.00 87 1010.1
20260508203538 10 31 0.0 4.8 0.00 0.00 0.00 88 1009.9
20260508203054 10 0 0.0 4.8 0.00 0.00 0.00 88 1010.0
20260508202537 10 0 0.0 4.8 0.00 0.00 0.00 88 1009.9
20260508202039 10 0 0.0 3.2 0.00 0.00 0.00 89 1010.0
20260508201548 10 0 0.0 3.2 0.00 0.00 0.00 89 1010.1
20260508201039 10 0 0.0 6.4 0.00 0.00 0.00 88 1010.2
20260508200539 9 249 0.0 6.4 0.00 0.00 0.00 87 1010.1
20260508195539 10 268 1.6 4.8 0.00 0.00 0.00 85 1010.7
20260508195039 10 0 1.6 6.4 0.00 0.00 0.00 84 1011.0
20260508194551 11 345 1.6 8.0 0.00 0.00 0.00 81 1010.9
20260508194038 12 7 3.2 8.0 0.00 0.00 0.00 76 1010.7
20260508193538 13 359 1.6 8.0 0.00 0.00 0.00 66 1010.1
20260508193102 13 358 1.6 6.4 0.00 0.00 0.00 63 1009.9
20260508192539 14 5 1.6 14.5 0.00 0.00 0.00 61 1009.6
20260508192039 14 1 3.2 14.5 0.00 0.00 0.00 57 1009.5
20260508191548 15 289 3.2 14.5 0.00 0.00 0.00 57 1009.4
20260508191038 15 345 1.6 9.7 0.00 0.00 0.00 59 1009.5
20260508190539 16 53 1.6 6.4 0.00 0.00 0.00 58 1009.4
20260508190050 16 342 1.6 6.4 0.00 0.00 0.00 58 1009.4
20260508185538 16 317 1.6 6.4 0.00 0.00 0.00 60 1009.3
20260508185038 16 10 3.2 6.4 0.00 0.00 0.00 58 1009.3
20260508184550 16 17 1.6 9.7 0.00 0.00 0.00 58 1009.3
20260508184038 16 2 3.2 9.7 0.00 0.00 0.00 57 1009.3
20260508183539 16 344 3.2 11.3 0.00 0.00 0.00 56 1009.4
20260508183103 16 330 1.6 11.3 0.00 0.00 0.00 59 1009.3
20260508182539 16 347 1.6 6.4 0.00 0.00 0.00 55 1009.4
20260508182043 16 3 1.6 6.4 0.00 0.00 0.00 56 1009.4
20260508181611 16 152 1.6 6.4 0.00 0.00 0.00 54 1009.4
20260508181039 16 339 3.2 9.7 0.00 0.00 0.00 53 1009.3
20260508180538 16 282 3.2 9.7 0.00 0.00 0.00 54 1009.4
20260508180053 16 26 3.2 6.4 0.00 0.00 0.00 51 1009.5
20260508175540 16 31 3.2 6.4 0.00 0.00 0.00 53 1009.5
20260508175039 16 9 3.2 6.4 0.00 0.00 0.00 50 1009.5
20260508174551 17 334 1.6 6.4 0.00 0.00 0.00 52 1009.5
20260508174039 17 11 1.6 6.4 0.00 0.00 0.00 52 1009.8
20260508173538 17 306 1.6 9.7 0.00 0.00 0.00 58 1009.6
20260508173050 17 328 1.6 9.7 0.00 0.00 0.00 57 1009.8
20260508172538 17 330 1.6 6.4 0.00 0.00 0.00 57 1009.8
20260508172038 17 0 1.6 6.4 0.00 0.00 0.00 57 1009.8
20260508171551 17 7 0.0 8.0 0.00 0.00 0.00 60 1009.8
20260508171042 17 28 3.2 8.0 0.00 0.00 0.00 55 1009.9
20260508170539 17 35 0.0 6.4 0.00 0.00 0.00 63 1009.8
20260508170051 17 230 1.6 6.4 0.00 0.00 0.00 65 1009.9
20260508165538 17 301 1.6 4.8 0.00 0.00 0.00 59 1009.9
20260508165039 17 0 1.6 4.8 0.00 0.00 0.00 58 1009.9
20260508164553 17 253 1.6 4.8 0.00 0.00 0.00 63 1009.9
20260508164039 17 233 0.0 3.2 0.00 0.00 0.00 64 1009.9
20260508163538 17 233 0.0 4.8 0.00 0.00 0.00 62 1009.9
20260508163054 17 230 0.0 4.8 0.00 0.00 0.00 63 1010.0
20260508162538 17 278 0.0 4.8 0.00 0.00 0.00 60 1010.1
20260508162043 17 278 1.6 4.8 0.00 0.00 0.00 61 1010.1
20260508161553 17 278 0.0 4.8 0.00 0.00 0.00 56 1010.0
20260508161039 17 0 1.6 4.8 0.00 0.00 0.00 56 1010.0
20260508160539 17 5 1.6 4.8 0.00 0.00 0.00 56 1010.3
20260508160059 17 0 0.0 6.4 0.00 0.00 0.00 57 1010.3
20260508155538 16 287 1.6 6.4 0.00 0.00 0.00 51 1010.3
20260508155039 16 15 1.6 6.4 0.00 0.00 0.00 55 1010.1
20260508154556 16 345 0.0 6.4 0.00 0.00 0.00 51 1010.3
20260508154038 16 0 1.6 6.4 0.00 0.00 0.00 43 1010.2
20260508153536 16 1 1.6 6.4 0.00 0.00 0.00 46 1010.3
20260508153051 16 327 1.6 6.4 0.00 0.00 0.00 46 1010.2
20260508152541 17 354 1.6 4.8 0.00 0.00 0.00 51 1010.3
20260508152038 16 277 1.6 8.0 0.00 0.00 0.00 51 1010.2
20260508151551 16 10 1.6 8.0 0.00 0.00 0.00 48 1010.3
20260508151040 16 28 3.2 8.0 0.00 0.00 0.00 45 1010.6
20260508150539 16 8 1.6 4.8 0.00 0.00 0.00 47 1010.4
20260508150122 16 18 0.0 8.0 0.00 0.00 0.00 48 1010.4
20260508145542 16 322 1.6 8.0 0.00 0.00 0.00 52 1010.3
20260508145037 16 0 1.6 8.0 0.00 0.00 0.00 46 1010.4
20260508144558 16 359 1.6 8.0 0.00 0.00 0.00 47 1010.6
20260508144038 16 284 1.6 8.0 0.00 0.00 0.00 46 1010.5
20260508143538 16 32 0.0 4.8 0.00 0.00 0.00 49 1010.5
20260508143053 15 59 1.6 4.8 0.00 0.00 0.00 45 1010.6
20260508142538 15 167 1.6 4.8 0.00 0.00 0.00 46 1010.6
20260508142043 15 212 1.6 4.8 0.00 0.00 0.00 46 1010.5
20260508141600 15 38 1.6 4.8 0.00 0.00 0.00 50 1010.6
20260508141038 15 106 1.6 4.8 0.00 0.00 0.00 48 1010.7
20260508140538 15 66 0.0 6.4 0.00 0.00 0.00 48 1010.6
20260508140058 15 33 1.6 6.4 0.00 0.00 0.00 52 1010.6
20260508135539 15 23 1.6 6.4 0.00 0.00 0.00 50 1010.7
20260508135038 15 281 1.6 4.8 0.00 0.00 0.00 51 1010.9
20260508134548 15 353 1.6 4.8 0.00 0.00 0.00 49 1010.8
20260508134038 15 16 1.6 4.8 0.00 0.00 0.00 49 1010.9
20260508133538 14 337 1.6 11.3 0.00 0.00 0.00 53 1010.8
20260508133048 14 0 1.6 11.3 0.00 0.00 0.00 52 1010.8
20260508132539 14 204 1.6 11.3 0.00 0.00 0.00 56 1010.8
20260508132038 13 258 1.6 8.0 0.00 0.00 0.00 53 1010.8
20260508131555 13 330 1.6 6.4 0.00 0.00 0.00 56 1010.9
20260508131039 13 14 1.6 6.4 0.00 0.00 0.00 57 1011.0
20260508130538 13 317 1.6 4.8 0.00 0.00 0.00 63 1010.9
20260508130048 12 316 1.6 4.8 0.00 0.00 0.00 62 1010.8
20260508125539 12 12 1.6 4.8 0.00 0.00 0.00 66 1010.8
20260508125038 11 0 0.0 3.2 0.00 0.00 0.00 67 1010.8
20260508124550 11 0 0.0 3.2 0.00 0.00 0.00 66 1010.9